User: anonymous   Login
Location: Unspecified
(0.0000°N, 0.0000°E)
Time: 00:55:00
(UTC+00:00)
Language:

STARLINK-5065 - Orbit

View from above orbital plane
View from above orbital plane
View from above satellite
View from above satellite

Ground track
Ground track

The orbit is defined by the following mean orbital elements,

1 55641U          26145.30100139 +.00000000 +00000-0 +63417-4 0 00004
2 55641  69.9996 351.4266 0003120 266.9184  93.1618 14.98325330    06
Epoch (UTC): 25 May 2026 07:13:26
Eccentricity: 0.0003120
inclination: 69.9996°
perigee height: 570 km
apogee height: 574 km
right ascension of ascending node: 351.4266°
argument of perigee: 266.9184°
revolutions per day: 14.98325330
mean anomaly at epoch: 93.1618°

The dashed part of the orbit path shows where the satellite is in the earth's shadow,  

DLR